Location: Bittkow
(50.3000°N, 19.0000°E)
Time: 04:01:08
(UTC+00:00)

Cosmos 2360 - Pass Details

Date: 19 September 2020
Orbit: 845 x 857 km, 70.8° (Epoch: 19 October)

Event Time Altitude Azimuth Distance (km) Brightness Sun altitude
Exits shadow 02:18:33 33° 208° (SSW) 1,404 4.9 -20.3°
Maximum altitude 02:21:16 90° 318° (NW) 865 4.2 -19.9°
Drops below altitude 10° 02:27:03 10° 30° (NNE) 2,502 7.5 -19.1°
Sets 02:29:31 0° 30° (NNE) 3,441 8.3 -18.7°
